Wind_Speed
3 8 10 11 12 17 20 24 28 27 23 27 29 26 24 24 25 22 15 13 25 31 23 17 21 29 20 17 13 9 18 16 16 9 12 10 6 7 10 10 10 12 14 16
9 14 15 22 23 26 25 29 32 25 23 23 23 20 24 22 19 18 15 17 13 19 30 26 28 34 27 17 15 17 14 21 20 16 12 13 12 10 10 12 12 12 12 13
19 20 18 20 23 20 16 19 15 24 27 28 27 26 26 16 16 18 19 17 12 3 13 25 41 35 33 27 18 21 22 20 24 22 20 18 19 19 16 10 9 11 12 12
14 13 16 19 20 14 18 16 21 27 26 27 26 13 27 21 15 17 16 17 20 21 20 16 16 31 34 30 25 21 28 27 28 27 26 22 19 14 7 9 10 10 13 14
8 16 19 24 13 13 19 16 19 20 25 27 31 12 23 23 13 16 21 27 30 28 27 19 11 22 33 37 36 29 32 31 30 32 29 26 22 21 19 17 15 15 14 15
17 18 21 18 19 19 12 14 16 17 18 8 16 10 7 6 7 10 16 21 23 30 27 16 15 16 15 21 33 45 36 31 35 34 33 31 24 24 23 22 20 16 15 15
18 20 8 12 2 4 15 20 12 8 5 6 20 18 2 7 6 8 10 15 20 25 28 21 24 32 22 23 31 37 46 35 36 34 35 34 29 26 25 24 21 20 16 16
10 15 7 13 16 20 18 20 8 6 4 10 24 7 4 8 7 7 9 17 17 17 21 22 22 31 30 32 36 39 57 58 42 34 36 36 34 30 27 27 24 23 17 16
6 12 22 26 18 17 14 18 21 19 18 3 1 4 4 2 12 18 19 19 23 12 19 15 16 17 26 34 40 44 53 56 53 49 40 38 37 34 32 28 26 24 19 16
7 14 16 26 27 16 17 16 14 12 4 4 3 5 4 20 20 19 22 21 27 28 19 23 23 26 31 35 38 41 49 55 51 50 43 39 37 36 35 31 30 25 19 19
10 12 19 26 27 26 21 17 13 11 8 2 2 7 16 17 15 15 21 21 25 37 30 18 25 32 32 25 33 43 46 48 48 48 39 34 36 36 37 35 33 29 24 21
17 14 16 24 28 24 15 11 20 17 10 16 13 14 11 16 12 14 21 17 23 26 24 25 24 26 31 18 43 38 39 46 39 40 32 26 33 31 34 36 37 33 30 25
17 12 15 15 16 4 9 19 24 23 15 22 7 12 20 16 18 13 15 20 22 30 27 27 25 29 27 28 30 50 60 51 43 29 26 21 25 32 31 38 41 38 35 30
5 6 4 5 10 18 26 30 27 23 25 31 28 22 13 10 13 16 23 25 27 24 24 22 16 12 9 8 12 28 41 50 27 23 33 34 35 35 35 37 45 46 44 39
7 8 11 13 17 21 27 27 26 26 27 27 21 14 7 10 16 18 21 23 23 20 19 11 9 10 14 13 9 16 13 30 21 25 28 34 32 35 35 36 43 48 44 43
23 20 21 24 24 21 21 21 25 25 20 18 14 15 15 20 21 22 22 22 18 20 17 12 8 8 14 9 4 11 7 6 17 27 28 28 37 45 23 31 34 42 42 44
33 35 33 31 22 22 23 23 20 15 10 14 16 18 20 22 20 19 17 18 15 12 11 6 7 19 11 5 4 11 11 14 9 14 19 24 22 16 42 33 27 31 36 40
38 39 34 28 24 8 27 21 11 14 15 19 18 16 12 14 17 21 20 13 15 13 13 11 7 8 9 5 1 3 5 4 9 10 7 3 7 9 10 22 26 34 34 38
15 27 27 16 19 19 13 13 17 17 20 23 26 25 16 13 18 18 16 13 14 10 8 10 9 6 4 4 5 6 3 5 7 11 10 3 7 9 13 7 7 11 21 30
19 8 15 15 5 7 12 12 19 21 22 17 20 19 15 8 13 14 8 6 7 7 5 7 8 8 6 5 4 2 3 7 7 6 9 12 9 11 10 9 5 3 13 24
12 11 10 5 3 10 10 14 15 8 8 14 16 18 17 14 14 17 13 12 14 15 4 3 1 7 5 3 2 4 3 3 3 6 6 6 9 12 13 14 13 14 10 14
8 8 8 6 7 8 6 15 14 17 17 20 22 16 14 12 14 12 13 11 5 6 4 4 6 2 1 2 5 4 4 3 4 8 10 11 8 4 4 7 12 17 20 20
13 16 12 11 8 15 17 15 19 19 18 25 22 21 17 19 14 13 3 8 7 4 6 8 6 3 2 1 1 0 2 3 4 7 7 6 7 8 9 7 4 4 12 21
11 9 16 14 12 15 17 20 22 26 27 28 25 24 17 15 13 11 11 9 6 5 2 6 5 4 7 6 7 7 7 7 6 6 8 6 7 6 7 8 9 11 9 6
16 14 15 16 15 16 16 19 23 26 30 27 24 16 14 14 13 12 10 7 7 7 10 6 9 5 8 9 9 11 11 9 8 7 8 8 6 8 8 7 9 8 8 8
10 14 16 15 16 13 13 16 21 24 26 24 13 9 10 11 13 11 8 7 7 8 8 9 7 4 8 12 10 8 10 11 10 8 9 7 6 7 8 7 6 6 3 4
Wind_Direction
308 291 334 358 320 309 302 298 299 308 324 318 313 307 312 305 307 310 314 240 250 239 247 250 244 232 231 243 242 242 226 224 214 208 204 209 208 200 177 183 198 214 218 221
316 302 340 323 315 303 294 290 296 316 325 319 332 312 301 303 302 316 305 305 295 252 250 247 268 238 234 228 271 256 249 228 233 218 209 208 224 228 213 200 200 204 220 233
299 299 321 312 315 312 298 296 315 325 320 306 306 309 311 343 322 306 311 316 323 301 232 257 255 243 236 234 235 273 265 251 232 228 217 214 216 226 235 231 216 217 221 229
278 287 293 300 305 314 316 315 312 316 319 319 322 307 316 321 322 321 313 305 302 297 301 279 249 241 239 234 240 254 266 263 234 231 227 225 231 233 228 231 237 229 230 234
310 341 322 307 294 311 302 307 314 316 314 311 315 309 327 333 295 298 305 294 301 306 310 309 207 229 233 241 249 256 260 257 249 232 233 229 231 228 225 228 230 234 237 237
303 328 330 301 288 291 302 311 311 313 312 307 324 336 32 21 338 304 287 275 277 289 300 268 254 257 265 257 246 247 250 255 253 235 232 234 230 233 229 231 237 234 237 235
304 308 284 33 312 5 349 330 311 318 324 244 311 317 315 17 339 300 306 307 306 291 286 272 257 248 256 276 250 248 246 248 250 242 233 233 233 233 232 232 236 238 236 239
255 290 279 320 339 339 337 334 327 275 243 277 308 294 136 39 23 2 334 324 327 304 273 272 260 256 260 282 259 240 245 246 246 250 238 234 231 233 234 232 229 237 233 238
255 250 272 289 311 333 345 338 326 312 297 277 329 114 297 339 327 324 332 339 334 311 284 283 283 270 282 291 282 232 241 244 246 246 245 239 233 231 233 233 231 233 225 236
276 285 291 295 306 303 328 0 340 332 339 306 310 298 289 319 325 332 319 314 330 339 310 266 287 290 302 290 270 253 241 242 240 246 251 249 244 233 235 233 233 233 226 234
306 300 299 301 312 314 307 353 2 340 303 202 240 293 308 310 308 321 327 321 322 324 327 318 281 289 303 280 262 243 243 242 240 238 235 245 249 245 232 234 233 228 228 235
317 309 300 306 309 301 280 353 351 352 315 305 295 305 302 304 299 320 317 338 336 337 330 329 322 311 293 264 255 257 249 233 235 245 237 236 242 244 235 230 236 231 230 233
297 283 301 314 323 33 318 317 331 330 318 310 294 303 302 271 295 322 329 332 336 333 330 327 310 310 296 285 242 248 254 232 242 237 233 234 231 234 232 221 228 231 231 235
262 267 280 293 291 302 303 309 318 321 313 311 307 309 290 257 265 296 310 318 332 333 329 321 310 333 339 347 283 249 229 226 247 238 236 235 237 233 229 223 222 224 226 226
291 283 286 282 277 287 288 297 307 309 308 303 308 306 281 281 293 305 315 326 327 324 331 347 329 315 339 342 4 335 271 237 266 252 246 238 239 232 233 230 229 231 228 230
281 290 293 293 287 287 293 300 298 300 297 295 294 301 309 313 315 320 312 316 320 314 315 335 318 303 312 274 4 38 10 287 257 237 249 252 260 272 256 234 242 238 237 237
278 285 288 292 290 289 289 288 291 309 314 312 315 314 313 312 325 316 317 319 313 304 277 248 236 282 285 353 285 257 265 274 270 262 261 267 277 252 246 304 268 253 250 248
276 278 279 278 284 273 287 280 275 303 314 315 311 311 309 326 326 305 297 290 291 291 276 270 283 265 242 245 129 93 166 231 257 259 257 284 307 277 232 237 270 254 243 244
316 255 263 260 260 265 260 268 283 306 307 303 299 295 284 319 332 332 311 281 268 266 266 278 292 283 280 251 263 254 217 248 277 250 259 215 174 180 223 237 320 292 252 249
312 271 241 249 236 216 267 275 293 296 304 300 298 292 278 307 320 322 305 279 268 271 242 260 281 288 304 283 271 267 293 283 275 259 249 266 256 238 231 224 201 150 228 227
241 249 247 244 328 283 276 271 290 292 302 317 314 330 236 286 300 306 284 283 271 255 254 242 285 295 301 302 349 34 7 6 332 303 293 280 269 253 244 239 227 209 213 217
291 308 310 291 213 255 246 299 295 306 317 320 316 304 298 286 278 290 294 300 294 215 258 311 296 11 62 70 87 56 40 51 75 75 53 47 42 343 278 263 261 242 229 216
283 283 286 264 262 281 298 301 310 316 317 325 312 312 292 287 260 260 289 342 335 193 118 319 328 206 174 132 190 315 334 22 14 31 24 22 26 34 33 34 23 303 247 238
327 301 289 272 305 308 300 305 308 315 316 314 305 300 276 267 267 259 254 278 286 273 231 275 281 247 245 262 248 254 270 287 288 308 319 313 297 301 311 317 330 345 11 33
306 285 294 279 286 294 300 307 312 315 310 303 300 285 276 265 255 255 259 235 234 233 246 247 259 268 273 260 249 252 258 263 272 286 290 299 294 290 296 299 304 325 359 359
296 302 301 296 299 294 295 293 300 300 304 300 275 292 277 249 257 258 246 241 240 259 234 231 231 246 255 272 266 262 263 266 277 284 281 284 287 290 297 306 307 304 315 319
Height
3149 3150 3149 3151 3151 3149 3148 3147 3145 3144 3145 3144 3141 3139 3138 3137 3136 3138 3140 3141 3143 3142 3142 3143 3145 3147 3148 3149 3152 3153 3155 3157 3156 3157 3159 3161 3162 3165 3166 3166 3165 3166 3168 3169
3150 3148 3148 3147 3147 3146 3145 3144 3141 3140 3140 3140 3137 3135 3134 3134 3134 3133 3133 3135 3135 3137 3138 3138 3140 3142 3143 3145 3149 3151 3151 3153 3154 3154 3157 3158 3159 3161 3163 3164 3164 3164 3165 3166
3146 3146 3146 3145 3144 3142 3141 3141 3140 3138 3136 3136 3134 3133 3130 3129 3129 3130 3131 3132 3134 3133 3132 3132 3133 3135 3139 3141 3143 3145 3148 3150 3150 3152 3152 3154 3155 3156 3156 3158 3160 3161 3162 3164
3144 3144 3145 3143 3141 3140 3138 3139 3138 3134 3133 3131 3131 3130 3128 3127 3127 3126 3128 3128 3124 3124 3124 3124 3125 3129 3131 3136 3138 3141 3142 3146 3146 3147 3148 3149 3151 3153 3154 3155 3156 3158 3160 3161
3144 3143 3141 3139 3138 3139 3137 3136 3136 3134 3131 3130 3126 3129 3124 3122 3125 3126 3126 3123 3122 3117 3118 3120 3120 3123 3126 3132 3133 3135 3136 3139 3141 3141 3143 3146 3148 3151 3152 3153 3154 3155 3156 3157
3143 3143 3139 3135 3135 3136 3136 3134 3132 3131 3130 3129 3126 3127 3125 3122 3122 3123 3122 3121 3120 3117 3114 3117 3120 3120 3118 3122 3123 3127 3129 3134 3136 3137 3140 3142 3146 3148 3149 3150 3151 3153 3153 3153
3141 3140 3139 3135 3133 3132 3131 3130 3128 3129 3130 3129 3125 3124 3124 3123 3123 3121 3119 3118 3115 3113 3111 3111 3111 3112 3108 3113 3114 3120 3121 3127 3131 3132 3135 3139 3142 3145 3148 3148 3150 3150 3151 3151
3139 3138 3137 3135 3137 3136 3132 3130 3129 3129 3129 3121 3121 3122 3123 3121 3120 3120 3117 3113 3111 3108 3105 3101 3100 3097 3101 3105 3106 3109 3112 3118 3126 3127 3130 3134 3138 3141 3144 3146 3147 3148 3149 3149
3135 3135 3135 3135 3136 3135 3131 3129 3127 3120 3117 3117 3118 3121 3119 3119 3119 3117 3112 3107 3106 3102 3100 3098 3096 3095 3096 3099 3098 3096 3101 3108 3117 3118 3124 3128 3133 3136 3139 3142 3145 3146 3147 3146
3133 3131 3131 3130 3131 3133 3131 3129 3125 3121 3120 3119 3116 3116 3116 3116 3113 3111 3108 3104 3099 3097 3096 3092 3091 3093 3092 3094 3092 3092 3095 3098 3104 3110 3117 3121 3127 3130 3133 3137 3139 3141 3143 3143
3132 3130 3130 3128 3128 3127 3125 3126 3126 3124 3121 3118 3118 3115 3113 3111 3108 3106 3104 3100 3096 3089 3086 3085 3084 3086 3088 3090 3090 3089 3089 3093 3096 3099 3103 3112 3119 3124 3126 3129 3132 3135 3136 3137
3130 3128 3125 3126 3124 3123 3123 3125 3124 3122 3119 3116 3112 3109 3107 3106 3104 3102 3099 3097 3092 3087 3082 3080 3078 3078 3080 3079 3081 3084 3085 3088 3093 3094 3098 3101 3108 3115 3117 3122 3124 3127 3130 3131
3127 3125 3123 3121 3123 3121 3120 3120 3121 3120 3116 3114 3112 3108 3104 3103 3100 3098 3095 3092 3087 3083 3079 3074 3071 3071 3069 3068 3068 3075 3077 3083 3088 3085 3089 3094 3099 3102 3105 3110 3112 3116 3121 3124
3124 3125 3125 3126 3126 3124 3120 3118 3118 3117 3113 3107 3107 3102 3101 3100 3099 3095 3091 3088 3084 3077 3075 3071 3068 3065 3065 3062 3059 3054 3060 3072 3074 3076 3081 3082 3088 3094 3097 3101 3102 3102 3106 3113
3123 3123 3122 3123 3122 3121 3118 3116 3113 3111 3108 3104 3101 3100 3098 3097 3094 3092 3088 3084 3079 3076 3070 3069 3069 3064 3062 3061 3059 3055 3060 3072 3072 3075 3074 3063 3078 3084 3090 3092 3096 3099 3101 3104
3120 3118 3118 3117 3117 3115 3113 3112 3109 3106 3104 3100 3097 3097 3095 3093 3090 3087 3084 3080 3076 3072 3067 3064 3064 3064 3063 3063 3061 3059 3060 3062 3066 3073 3072 3068 3066 3057 3058 3079 3089 3092 3096 3098
3117 3115 3113 3108 3113 3110 3107 3106 3104 3101 3099 3097 3094 3092 3088 3086 3084 3082 3079 3075 3072 3069 3067 3064 3067 3064 3064 3062 3062 3064 3067 3070 3070 3068 3067 3067 3066 3064 3060 3071 3080 3085 3089 3091
3109 3109 3108 3105 3107 3105 3100 3099 3099 3098 3096 3093 3090 3088 3084 3083 3079 3077 3074 3071 3069 3066 3064 3062 3062 3060 3063 3064 3064 3065 3066 3066 3064 3064 3062 3063 3063 3064 3064 3071 3073 3073 3073 3074
3101 3101 3102 3101 3101 3102 3097 3097 3095 3092 3091 3086 3085 3082 3080 3077 3075 3072 3071 3068 3066 3064 3062 3060 3059 3058 3057 3058 3060 3062 3061 3064 3063 3061 3060 3061 3063 3063 3064 3063 3063 3060 3060 3062
3096 3094 3097 3097 3097 3095 3094 3093 3089 3086 3084 3082 3080 3078 3076 3073 3070 3070 3069 3066 3065 3061 3058 3059 3059 3056 3055 3056 3057 3057 3058 3059 3058 3057 3057 3057 3055 3057 3056 3058 3057 3058 3058 3057
3095 3093 3092 3092 3095 3093 3089 3088 3085 3086 3086 3080 3078 3073 3068 3069 3068 3067 3065 3063 3061 3060 3059 3058 3056 3054 3054 3054 3055 3054 3055 3055 3055 3054 3053 3051 3052 3052 3052 3055 3056 3055 3054 3055
3093 3092 3092 3090 3089 3089 3085 3086 3086 3083 3079 3076 3073 3072 3069 3066 3064 3064 3062 3059 3056 3056 3057 3057 3055 3055 3055 3057 3057 3056 3058 3057 3055 3053 3051 3051 3051 3050 3049 3051 3052 3052 3054 3053
3091 3091 3091 3092 3087 3084 3083 3081 3079 3077 3075 3072 3069 3066 3062 3062 3062 3062 3060 3058 3056 3054 3055 3057 3058 3060 3059 3059 3058 3059 3060 3058 3057 3056 3056 3055 3054 3051 3051 3051 3051 3048 3046 3045
3088 3086 3085 3086 3083 3081 3079 3076 3074 3072 3070 3067 3064 3061 3059 3058 3057 3057 3058 3055 3056 3055 3056 3056 3057 3059 3060 3059 3059 3059 3059 3059 3058 3058 3058 3057 3054 3051 3051 3053 3051 3048 3045 3043
3087 3084 3082 3081 3081 3079 3075 3073 3070 3068 3065 3061 3058 3056 3054 3054 3053 3054 3053 3054 3054 3055 3056 3056 3057 3057 3058 3059 3058 3059 3059 3059 3058 3056 3056 3053 3052 3052 3052 3051 3050 3047 3044 3045
3083 3082 3080 3078 3077 3074 3072 3067 3065 3062 3058 3055 3054 3052 3050 3050 3050 3050 3050 3051 3052 3053 3054 3056 3056 3056 3058 3058 3058 3057 3057 3055 3054 3054 3054 3052 3051 3052 3052 3050 3048 3045 3045 3046